Location: Newark
(50.8964°N, 1.4048°W)
Time: 00:31:04
(UTC+00:00)

N. Korean satellite - Pass Details

Date: 02 February 2020
Orbit: 456 x 505 km, 97.2° (Epoch: 24 February)

Event Time Altitude Azimuth Distance (km) Brightness Sun altitude
Rises 17:37:48 0° 192° (SSW) 2,469 10.6 -6.6°
Reaches altitude 10° 17:40:02 10° 205° (SSW) 1,605 9.9 -7.0°
Maximum altitude 17:43:00 27° 265° (W) 926 9.0 -7.4°
Drops below altitude 10° 17:46:03 10° 325° (NW) 1,635 9.5 -7.9°
Sets 17:48:20 0° 338° (NNW) 2,526 10.3 -8.2°
